utcTime,localTime,pm25,nowcast
2022-09-09 15:00:00 +0000,2022-09-09 08:00:00 -0700,9,NA
2022-09-09 16:00:00 +0000,2022-09-09 09:00:00 -0700,9,9
2022-09-09 17:00:00 +0000,2022-09-09 10:00:00 -0700,11,9.8
2022-09-09 18:00:00 +0000,2022-09-09 11:00:00 -0700,17,13.6
2022-09-09 19:00:00 +0000,2022-09-09 12:00:00 -0700,23,18.5
2022-09-09 20:00:00 +0000,2022-09-09 13:00:00 -0700,29,23.8
2022-09-09 21:00:00 +0000,2022-09-09 14:00:00 -0700,35,29.4
2022-09-09 22:00:00 +0000,2022-09-09 15:00:00 -0700,38,33.7
2022-09-09 23:00:00 +0000,2022-09-09 16:00:00 -0700,32,32.8
2022-09-10 00:00:00 +0000,2022-09-09 17:00:00 -0700,31,31.9
2022-09-10 01:00:00 +0000,2022-09-09 18:00:00 -0700,29,30.4
2022-09-10 02:00:00 +0000,2022-09-09 19:00:00 -0700,34,32.2
2022-09-10 03:00:00 +0000,2022-09-09 20:00:00 -0700,17,24.6
2022-09-10 04:00:00 +0000,2022-09-09 21:00:00 -0700,12,18.3
2022-09-10 05:00:00 +0000,2022-09-09 22:00:00 -0700,12,15.1
2022-09-10 06:00:00 +0000,2022-09-09 23:00:00 -0700,16,15.5
2022-09-10 07:00:00 +0000,2022-09-10 00:00:00 -0700,19,17.2
2022-09-10 08:00:00 +0000,2022-09-10 01:00:00 -0700,22,19.6
2022-09-10 09:00:00 +0000,2022-09-10 02:00:00 -0700,20,19.8
2022-09-10 10:00:00 +0000,2022-09-10 03:00:00 -0700,20,19.9
2022-09-10 11:00:00 +0000,2022-09-10 04:00:00 -0700,23,21.4
2022-09-10 12:00:00 +0000,2022-09-10 05:00:00 -0700,22,21.7
2022-09-10 13:00:00 +0000,2022-09-10 06:00:00 -0700,22,21.8
2022-09-10 14:00:00 +0000,2022-09-10 07:00:00 -0700,25,23.4
2022-09-10 15:00:00 +0000,2022-09-10 08:00:00 -0700,27,25.2
2022-09-10 16:00:00 +0000,2022-09-10 09:00:00 -0700,33,29.1
2022-09-10 17:00:00 +0000,2022-09-10 10:00:00 -0700,36,32.5
2022-09-10 18:00:00 +0000,2022-09-10 11:00:00 -0700,38,35.2
2022-09-10 19:00:00 +0000,2022-09-10 12:00:00 -0700,20,27.8
2022-09-10 20:00:00 +0000,2022-09-10 13:00:00 -0700,25,26.5
2022-09-10 21:00:00 +0000,2022-09-10 14:00:00 -0700,38,31.9
2022-09-10 22:00:00 +0000,2022-09-10 15:00:00 -0700,35,33.4
2022-09-10 23:00:00 +0000,2022-09-10 16:00:00 -0700,38,35.5
2022-09-11 00:00:00 +0000,2022-09-10 17:00:00 -0700,65,50.4
2022-09-11 01:00:00 +0000,2022-09-10 18:00:00 -0700,80,65.2
2022-09-11 02:00:00 +0000,2022-09-10 19:00:00 -0700,81,73.1
2022-09-11 03:00:00 +0000,2022-09-10 20:00:00 -0700,65,69
2022-09-11 04:00:00 +0000,2022-09-10 21:00:00 -0700,87,78
2022-09-11 05:00:00 +0000,2022-09-10 22:00:00 -0700,88,83
2022-09-11 06:00:00 +0000,2022-09-10 23:00:00 -0700,69,76
2022-09-11 07:00:00 +0000,2022-09-11 00:00:00 -0700,46,61
2022-09-11 08:00:00 +0000,2022-09-11 01:00:00 -0700,46,53.5
2022-09-11 09:00:00 +0000,2022-09-11 02:00:00 -0700,42,47.7
2022-09-11 10:00:00 +0000,2022-09-11 03:00:00 -0700,42,44.8
2022-09-11 11:00:00 +0000,2022-09-11 04:00:00 -0700,41,42.9
2022-09-11 12:00:00 +0000,2022-09-11 05:00:00 -0700,35,38.9
2022-09-11 13:00:00 +0000,2022-09-11 06:00:00 -0700,28,33.4
2022-09-11 14:00:00 +0000,2022-09-11 07:00:00 -0700,28,30.7
2022-09-11 15:00:00 +0000,2022-09-11 08:00:00 -0700,31,30.8
2022-09-11 16:00:00 +0000,2022-09-11 09:00:00 -0700,31,30.9
2022-09-11 17:00:00 +0000,2022-09-11 10:00:00 -0700,26,28.4
2022-09-11 18:00:00 +0000,2022-09-11 11:00:00 -0700,24,26.3
2022-09-11 19:00:00 +0000,2022-09-11 12:00:00 -0700,25,25.7
2022-09-11 20:00:00 +0000,2022-09-11 13:00:00 -0700,32,28.5
2022-09-11 21:00:00 +0000,2022-09-11 14:00:00 -0700,32,30
2022-09-11 22:00:00 +0000,2022-09-11 15:00:00 -0700,28,29.1
2022-09-11 23:00:00 +0000,2022-09-11 16:00:00 -0700,32,29.9
2022-09-12 00:00:00 +0000,2022-09-11 17:00:00 -0700,28,29.2
2022-09-12 01:00:00 +0000,2022-09-11 18:00:00 -0700,30,29.4
2022-09-12 02:00:00 +0000,2022-09-11 19:00:00 -0700,26,28.5
2022-09-12 03:00:00 +0000,2022-09-11 20:00:00 -0700,31,29.1
2022-09-12 04:00:00 +0000,2022-09-11 21:00:00 -0700,28,28.8
2022-09-12 05:00:00 +0000,2022-09-11 22:00:00 -0700,21,26.1
2022-09-12 06:00:00 +0000,2022-09-11 23:00:00 -0700,21,24.3
2022-09-12 07:00:00 +0000,2022-09-12 00:00:00 -0700,16,19.4
2022-09-12 08:00:00 +0000,2022-09-12 01:00:00 -0700,18,18.7
2022-09-12 09:00:00 +0000,2022-09-12 02:00:00 -0700,18,18.3
2022-09-12 10:00:00 +0000,2022-09-12 03:00:00 -0700,21,19.6
2022-09-12 11:00:00 +0000,2022-09-12 04:00:00 -0700,23,21.2
2022-09-12 12:00:00 +0000,2022-09-12 05:00:00 -0700,25,23
2022-09-12 13:00:00 +0000,2022-09-12 06:00:00 -0700,24,23.5
2022-09-12 14:00:00 +0000,2022-09-12 07:00:00 -0700,25,24.2
2022-09-12 15:00:00 +0000,2022-09-12 08:00:00 -0700,25,24.4
2022-09-12 16:00:00 +0000,2022-09-12 09:00:00 -0700,24,24
2022-09-12 17:00:00 +0000,2022-09-12 10:00:00 -0700,17,21.5
2022-09-12 18:00:00 +0000,2022-09-12 11:00:00 -0700,17,19.8
2022-09-12 19:00:00 +0000,2022-09-12 12:00:00 -0700,19,19.8
2022-09-12 20:00:00 +0000,2022-09-12 13:00:00 -0700,22,20.5
2022-09-12 21:00:00 +0000,2022-09-12 14:00:00 -0700,22,21
2022-09-12 22:00:00 +0000,2022-09-12 15:00:00 -0700,24,21.9
2022-09-12 23:00:00 +0000,2022-09-12 16:00:00 -0700,22,21.9
2022-09-13 00:00:00 +0000,2022-09-12 17:00:00 -0700,18,20.6
2022-09-13 01:00:00 +0000,2022-09-12 18:00:00 -0700,17,19.4
2022-09-13 02:00:00 +0000,2022-09-12 19:00:00 -0700,18,18.9
2022-09-13 03:00:00 +0000,2022-09-12 20:00:00 -0700,20,19.3
2022-09-13 04:00:00 +0000,2022-09-12 21:00:00 -0700,20,19.5
2022-09-13 05:00:00 +0000,2022-09-12 22:00:00 -0700,16,18.3
2022-09-13 06:00:00 +0000,2022-09-12 23:00:00 -0700,18,18.2
2022-09-13 07:00:00 +0000,2022-09-13 00:00:00 -0700,22,19.4
2022-09-13 08:00:00 +0000,2022-09-13 01:00:00 -0700,18,18.9
2022-09-13 09:00:00 +0000,2022-09-13 02:00:00 -0700,15,17.4
2022-09-13 10:00:00 +0000,2022-09-13 03:00:00 -0700,10,13.4
2022-09-13 11:00:00 +0000,2022-09-13 04:00:00 -0700,14,13.7
2022-09-13 12:00:00 +0000,2022-09-13 05:00:00 -0700,12,12.8
2022-09-13 13:00:00 +0000,2022-09-13 06:00:00 -0700,13,12.9
2022-09-13 14:00:00 +0000,2022-09-13 07:00:00 -0700,11,11.9
2022-09-13 15:00:00 +0000,2022-09-13 08:00:00 -0700,10,10.9
2022-09-13 16:00:00 +0000,2022-09-13 09:00:00 -0700,14,12.4
2022-09-13 17:00:00 +0000,2022-09-13 10:00:00 -0700,10,11.2
2022-09-13 18:00:00 +0000,2022-09-13 11:00:00 -0700,10,10.6
2022-09-13 19:00:00 +0000,2022-09-13 12:00:00 -0700,NA,NA
2022-09-13 20:00:00 +0000,2022-09-13 13:00:00 -0700,14,12.2
2022-09-13 21:00:00 +0000,2022-09-13 14:00:00 -0700,13,12.4
2022-09-13 22:00:00 +0000,2022-09-13 15:00:00 -0700,13,12.6
2022-09-13 23:00:00 +0000,2022-09-13 16:00:00 -0700,11,12.1
2022-09-14 00:00:00 +0000,2022-09-13 17:00:00 -0700,14,12.6
2022-09-14 01:00:00 +0000,2022-09-13 18:00:00 -0700,13,12.7
2022-09-14 02:00:00 +0000,2022-09-13 19:00:00 -0700,14,13.1
2022-09-14 03:00:00 +0000,2022-09-13 20:00:00 -0700,18,15.4
2022-09-14 04:00:00 +0000,2022-09-13 21:00:00 -0700,17,16.1
2022-09-14 05:00:00 +0000,2022-09-13 22:00:00 -0700,17,16.5
2022-09-14 06:00:00 +0000,2022-09-13 23:00:00 -0700,16,16.2
2022-09-14 07:00:00 +0000,2022-09-14 00:00:00 -0700,19,17.4
2022-09-14 08:00:00 +0000,2022-09-14 01:00:00 -0700,21,19.2
2022-09-14 09:00:00 +0000,2022-09-14 02:00:00 -0700,20,19.5
2022-09-14 10:00:00 +0000,2022-09-14 03:00:00 -0700,19,19.3
2022-09-14 11:00:00 +0000,2022-09-14 04:00:00 -0700,17,18.3
2022-09-14 12:00:00 +0000,2022-09-14 05:00:00 -0700,14,16.6
2022-09-14 13:00:00 +0000,2022-09-14 06:00:00 -0700,21,18.2
2022-09-14 14:00:00 +0000,2022-09-14 07:00:00 -0700,19,18.5
2022-09-14 15:00:00 +0000,2022-09-14 08:00:00 -0700,14,17
2022-09-14 16:00:00 +0000,2022-09-14 09:00:00 -0700,16,16.6
2022-09-14 17:00:00 +0000,2022-09-14 10:00:00 -0700,18,17.1
2022-09-14 18:00:00 +0000,2022-09-14 11:00:00 -0700,19,17.7
2022-09-14 19:00:00 +0000,2022-09-14 12:00:00 -0700,9,13.5
2022-09-14 20:00:00 +0000,2022-09-14 13:00:00 -0700,11,12.2
2022-09-14 21:00:00 +0000,2022-09-14 14:00:00 -0700,16,14.1
2022-09-14 22:00:00 +0000,2022-09-14 15:00:00 -0700,17,15.5
2022-09-14 23:00:00 +0000,2022-09-14 16:00:00 -0700,13,14.2
2022-09-15 00:00:00 +0000,2022-09-14 17:00:00 -0700,11,12.6
2022-09-15 01:00:00 +0000,2022-09-14 18:00:00 -0700,16,14.3
2022-09-15 02:00:00 +0000,2022-09-14 19:00:00 -0700,16,15.1
2022-09-15 03:00:00 +0000,2022-09-14 20:00:00 -0700,15,15
2022-09-15 04:00:00 +0000,2022-09-14 21:00:00 -0700,16,15.5
2022-09-15 05:00:00 +0000,2022-09-14 22:00:00 -0700,12,13.7
2022-09-15 06:00:00 +0000,2022-09-14 23:00:00 -0700,17,15.3
2022-09-15 07:00:00 +0000,2022-09-15 00:00:00 -0700,11,13.6
2022-09-15 08:00:00 +0000,2022-09-15 01:00:00 -0700,16,14.5
2022-09-15 09:00:00 +0000,2022-09-15 02:00:00 -0700,9,11.9
2022-09-15 10:00:00 +0000,2022-09-15 03:00:00 -0700,14,12.9
2022-09-15 11:00:00 +0000,2022-09-15 04:00:00 -0700,15,13.8
2022-09-15 12:00:00 +0000,2022-09-15 05:00:00 -0700,12,13
2022-09-15 13:00:00 +0000,2022-09-15 06:00:00 -0700,11,12
2022-09-15 14:00:00 +0000,2022-09-15 07:00:00 -0700,11,11.5
2022-09-15 15:00:00 +0000,2022-09-15 08:00:00 -0700,14,12.7
2022-09-15 16:00:00 +0000,2022-09-15 09:00:00 -0700,17,14.7
2022-09-15 17:00:00 +0000,2022-09-15 10:00:00 -0700,16,15.3
2022-09-15 18:00:00 +0000,2022-09-15 11:00:00 -0700,10,12.8
2022-09-15 19:00:00 +0000,2022-09-15 12:00:00 -0700,12,12.4
2022-09-15 20:00:00 +0000,2022-09-15 13:00:00 -0700,13,12.6
2022-09-15 21:00:00 +0000,2022-09-15 14:00:00 -0700,11,12
2022-09-15 22:00:00 +0000,2022-09-15 15:00:00 -0700,8,9.9
2022-09-15 23:00:00 +0000,2022-09-15 16:00:00 -0700,10,9.9
2022-09-16 00:00:00 +0000,2022-09-15 17:00:00 -0700,11,10.4
2022-09-16 01:00:00 +0000,2022-09-15 18:00:00 -0700,9,9.7
2022-09-16 02:00:00 +0000,2022-09-15 19:00:00 -0700,14,11.8
2022-09-16 03:00:00 +0000,2022-09-15 20:00:00 -0700,16,13.9
2022-09-16 04:00:00 +0000,2022-09-15 21:00:00 -0700,12,12.9
2022-09-16 05:00:00 +0000,2022-09-15 22:00:00 -0700,14,13.4
2022-09-16 06:00:00 +0000,2022-09-15 23:00:00 -0700,9,11.2
2022-09-16 07:00:00 +0000,2022-09-16 00:00:00 -0700,5,8.1
2022-09-16 08:00:00 +0000,2022-09-16 01:00:00 -0700,4,6
2022-09-16 09:00:00 +0000,2022-09-16 02:00:00 -0700,6,6
2022-09-16 10:00:00 +0000,2022-09-16 03:00:00 -0700,8,7
2022-09-16 11:00:00 +0000,2022-09-16 04:00:00 -0700,7,7
2022-09-16 12:00:00 +0000,2022-09-16 05:00:00 -0700,5,6
2022-09-16 13:00:00 +0000,2022-09-16 06:00:00 -0700,4,5
2022-09-16 14:00:00 +0000,2022-09-16 07:00:00 -0700,4,4.4
2022-09-16 15:00:00 +0000,2022-09-16 08:00:00 -0700,6,5.2
2022-09-16 16:00:00 +0000,2022-09-16 09:00:00 -0700,6,5.6
2022-09-16 17:00:00 +0000,2022-09-16 10:00:00 -0700,7,6.3
2022-09-16 18:00:00 +0000,2022-09-16 11:00:00 -0700,6,6.1
2022-09-16 19:00:00 +0000,2022-09-16 12:00:00 -0700,6,6
2022-09-16 20:00:00 +0000,2022-09-16 13:00:00 -0700,3,4.5
2022-09-16 21:00:00 +0000,2022-09-16 14:00:00 -0700,5,4.7
2022-09-16 22:00:00 +0000,2022-09-16 15:00:00 -0700,5,4.8
2022-09-16 23:00:00 +0000,2022-09-16 16:00:00 -0700,3,3.9
2022-09-17 00:00:00 +0000,2022-09-16 17:00:00 -0700,2,2.9
2022-09-17 01:00:00 +0000,2022-09-16 18:00:00 -0700,7,4.9
2022-09-17 02:00:00 +0000,2022-09-16 19:00:00 -0700,5,4.9
2022-09-17 03:00:00 +0000,2022-09-16 20:00:00 -0700,6,5.4
2022-09-17 04:00:00 +0000,2022-09-16 21:00:00 -0700,8,6.7
2022-09-17 05:00:00 +0000,2022-09-16 22:00:00 -0700,9,7.8
2022-09-17 06:00:00 +0000,2022-09-16 23:00:00 -0700,6,6.9
2022-09-17 07:00:00 +0000,2022-09-17 00:00:00 -0700,9,7.9
2022-09-17 08:00:00 +0000,2022-09-17 01:00:00 -0700,14,10.9
2022-09-17 09:00:00 +0000,2022-09-17 02:00:00 -0700,8,9.4
2022-09-17 10:00:00 +0000,2022-09-17 03:00:00 -0700,5,7.2
2022-09-17 11:00:00 +0000,2022-09-17 04:00:00 -0700,4,5.6
2022-09-17 12:00:00 +0000,2022-09-17 05:00:00 -0700,7,6.3
2022-09-17 13:00:00 +0000,2022-09-17 06:00:00 -0700,8,7.1
2022-09-17 14:00:00 +0000,2022-09-17 07:00:00 -0700,7,7
2022-09-17 15:00:00 +0000,2022-09-17 08:00:00 -0700,6,6.5
2022-09-17 16:00:00 +0000,2022-09-17 09:00:00 -0700,6,6.2
2022-09-17 17:00:00 +0000,2022-09-17 10:00:00 -0700,5,5.6
2022-09-17 18:00:00 +0000,2022-09-17 11:00:00 -0700,3,4.3
2022-09-17 19:00:00 +0000,2022-09-17 12:00:00 -0700,6,5.1
2022-09-17 20:00:00 +0000,2022-09-17 13:00:00 -0700,5,5
2022-09-17 21:00:00 +0000,2022-09-17 14:00:00 -0700,7,6
2022-09-17 22:00:00 +0000,2022-09-17 15:00:00 -0700,8,7
2022-09-17 23:00:00 +0000,2022-09-17 16:00:00 -0700,8,7.5
2022-09-18 00:00:00 +0000,2022-09-17 17:00:00 -0700,8,7.7
2022-09-18 01:00:00 +0000,2022-09-17 18:00:00 -0700,10,8.8
2022-09-18 02:00:00 +0000,2022-09-17 19:00:00 -0700,7,7.9
2022-09-18 03:00:00 +0000,2022-09-17 20:00:00 -0700,8,7.9
2022-09-18 04:00:00 +0000,2022-09-17 21:00:00 -0700,6,6.9
2022-09-18 05:00:00 +0000,2022-09-17 22:00:00 -0700,5,5.9
2022-09-18 06:00:00 +0000,2022-09-17 23:00:00 -0700,6,5.9
2022-09-18 07:00:00 +0000,2022-09-18 00:00:00 -0700,7,6.4
2022-09-18 08:00:00 +0000,2022-09-18 01:00:00 -0700,7,6.7
2022-09-18 09:00:00 +0000,2022-09-18 02:00:00 -0700,5,5.8
2022-09-18 10:00:00 +0000,2022-09-18 03:00:00 -0700,4,4.9
2022-09-18 11:00:00 +0000,2022-09-18 04:00:00 -0700,6,5.4
2022-09-18 12:00:00 +0000,2022-09-18 05:00:00 -0700,3,4.2
2022-09-18 13:00:00 +0000,2022-09-18 06:00:00 -0700,5,4.6
2022-09-18 14:00:00 +0000,2022-09-18 07:00:00 -0700,11,7.8
2022-09-18 15:00:00 +0000,2022-09-18 08:00:00 -0700,9,8.4
2022-09-18 16:00:00 +0000,2022-09-18 09:00:00 -0700,5,6.7
2022-09-18 17:00:00 +0000,2022-09-18 10:00:00 -0700,5,5.8
2022-09-18 18:00:00 +0000,2022-09-18 11:00:00 -0700,5,5.4
2022-09-18 19:00:00 +0000,2022-09-18 12:00:00 -0700,5,5.2
2022-09-18 20:00:00 +0000,2022-09-18 13:00:00 -0700,5,5.1
2022-09-18 21:00:00 +0000,2022-09-18 14:00:00 -0700,7,6
2022-09-18 22:00:00 +0000,2022-09-18 15:00:00 -0700,11,8.5
2022-09-18 23:00:00 +0000,2022-09-18 16:00:00 -0700,9,8.7
2022-09-19 00:00:00 +0000,2022-09-18 17:00:00 -0700,7,7.8
2022-09-19 01:00:00 +0000,2022-09-18 18:00:00 -0700,12,9.9
2022-09-19 02:00:00 +0000,2022-09-18 19:00:00 -0700,9,9.4
2022-09-19 03:00:00 +0000,2022-09-18 20:00:00 -0700,8,8.7
2022-09-19 04:00:00 +0000,2022-09-18 21:00:00 -0700,9,8.8
2022-09-19 05:00:00 +0000,2022-09-18 22:00:00 -0700,10,9.4
2022-09-19 06:00:00 +0000,2022-09-18 23:00:00 -0700,12,10.7
2022-09-19 07:00:00 +0000,2022-09-19 00:00:00 -0700,12,11.3
2022-09-19 08:00:00 +0000,2022-09-19 01:00:00 -0700,10,10.6
2022-09-19 09:00:00 +0000,2022-09-19 02:00:00 -0700,10,10.3
2022-09-19 10:00:00 +0000,2022-09-19 03:00:00 -0700,10,10.2
2022-09-19 11:00:00 +0000,2022-09-19 04:00:00 -0700,9,9.7
2022-09-19 12:00:00 +0000,2022-09-19 05:00:00 -0700,12,10.5
2022-09-19 13:00:00 +0000,2022-09-19 06:00:00 -0700,11,10.7
2022-09-19 14:00:00 +0000,2022-09-19 07:00:00 -0700,12,11.1
2022-09-19 15:00:00 +0000,2022-09-19 08:00:00 -0700,NA,NA
